EA5ILC Weather Reports


Display with metric or nautical units.
time (UTC)temp
F
wind
direction
speed
MPH
gust
MPH
rain 1hr
in
rain 24hr
in
rain mn
in
humidity
%
barometer
mb
20260507042522 56 0.0 0.0 0.00 0.00 0.00 76 1013.3
20260507041519 56 0.0 2.0 0.00 0.00 0.00 77 1013.2
20260507040516 56 0.0 0.0 0.00 0.00 0.00 77 1013.0
20260507035614 56 0.0 0.0 0.00 0.00 0.00 77 1013.0
20260507034611 56 0.0 0.0 0.00 0.00 0.00 78 1013.1
20260507033608 56 23 0.0 2.0 0.00 0.00 0.00 78 1013.3
20260507032606 57 0.0 2.0 0.00 0.00 0.00 76 1013.4
20260507031604 57 0.0 2.0 0.00 0.00 0.00 76 1013.4
20260507030701 57 0.0 0.0 0.00 0.00 0.00 78 1013.5
20260507025618 57 0.0 0.0 0.00 0.00 0.00 78 1013.5
20260507024556 58 0.0 0.0 0.00 0.00 0.00 78 1013.4
20260507023633 58 68 0.0 2.0 0.00 0.00 0.00 77 1013.8
20260507022611 58 68 0.0 2.0 0.00 0.00 0.00 77 1013.8
20260507021548 58 0.0 0.0 0.00 0.00 0.00 77 1013.7
20260507020605 57 0.0 0.0 0.00 0.00 0.00 78 1013.7
20260507015542 58 0.0 0.0 0.00 0.00 0.00 78 1013.7
20260507014600 57 45 0.0 2.0 0.00 0.00 0.00 81 1013.7
20260507013537 57 0.0 0.0 0.00 0.00 0.00 81 1013.7
20260507012535 57 0.0 0.0 0.00 0.00 0.00 81 1013.7
20260507011532 57 0.0 0.0 0.00 0.00 0.00 81 1013.8
20260507010530 57 0.0 0.0 0.00 0.00 0.00 80 1013.8
20260507005527 58 0.0 0.0 0.00 0.00 0.00 80 1013.9
20260507004524 58 0 0.0 4.0 0.00 0.00 0.00 81 1013.9
20260507003522 57 0.0 0.0 0.00 0.00 0.00 83 1014.0
20260507002519 57 19 1.0 2.0 0.00 0.00 0.00 85 1014.2
20260507001516 57 19 1.0 2.0 0.00 0.00 0.00 84 1014.1
20260507000614 57 0.0 0.0 0.00 0.00 0.00 83 1014.1
20260506235611 58 0.0 0.0 0.00 0.00 0.00 83 1014.4
20260506234609 58 0 0.0 2.0 0.00 0.00 0.00 82 1014.4
20260506233626 58 0 0.0 2.0 0.00 0.00 0.00 81 1014.4
20260506232604 58 0.0 0.0 0.00 0.00 0.00 82 1014.3
20260506231601 58 0 0.0 2.0 0.00 0.00 0.00 82 1014.7
20260506230558 58 0.0 0.0 0.00 0.00 0.00 83 1014.7
20260506225555 58 0 0.0 2.0 0.00 0.00 0.00 83 1014.6
20260506224553 59 0 0.0 2.0 0.00 0.00 0.00 82 1014.6
20260506223550 59 0 1.0 2.0 0.00 0.00 0.00 82 1014.7
20260506222548 59 0 0.0 2.0 0.00 0.00 0.00 81 1014.8
20260506221545 58 0 1.0 2.0 0.00 0.00 0.00 83 1014.7
20260506220543 59 6 1.0 4.0 0.00 0.00 0.00 82 1014.9
20260506215540 59 0 0.0 2.0 0.00 0.00 0.00 81 1015.0
20260506214558 59 16 1.0 4.0 0.00 0.00 0.00 82 1015.0
20260506213535 59 20 1.0 4.0 0.00 0.00 0.00 82 1015.2
20260506212532 59 7 0.0 2.0 0.00 0.00 0.00 82 1015.0
20260506211529 59 357 1.0 2.0 0.00 0.00 0.00 82 1014.9
20260506210527 59 4 1.0 4.0 0.00 0.00 0.00 82 1014.8
20260506205524 59 10 1.0 4.0 0.00 0.00 0.00 82 1014.9
20260506204522 59 15 0.0 2.0 0.00 0.00 0.00 81 1014.7
20260506203519 59 311 1.0 4.0 0.00 0.00 0.00 81 1014.6
20260506202516 59 83 1.0 4.0 0.00 0.00 0.00 81 1014.3
20260506201634 59 349 1.0 4.0 0.00 0.00 0.00 81 1014.3
20260506200612 59 139 1.0 2.0 0.00 0.00 0.00 81 1014.2
20260506195609 60 158 1.0 4.0 0.00 0.00 0.00 81 1014.0
20260506194606 60 63 1.0 2.0 0.00 0.00 0.00 81 1013.9
20260506193604 60 187 0.0 2.0 0.00 0.00 0.00 80 1013.8
20260506192601 60 208 2.0 4.0 0.00 0.00 0.00 80 1013.6
20260506191618 61 137 2.0 4.0 0.00 0.00 0.00 81 1013.6
20260506190616 61 312 1.0 4.0 0.00 0.00 0.00 80 1013.5
20260506185553 62 0 0.0 2.0 0.00 0.00 0.00 80 1013.4
20260506184551 62 116 2.0 4.0 0.00 0.00 0.00 79 1013.4
20260506183548 62 137 1.0 2.0 0.00 0.00 0.00 78 1013.4
20260506182545 62 143 2.0 6.0 0.00 0.00 0.00 78 1013.3
20260506181543 62 136 2.0 6.0 0.00 0.00 0.00 78 1013.4
20260506180540 62 82 3.0 8.0 0.00 0.00 0.00 78 1013.3
20260506175538 63 309 1.0 4.0 0.00 0.00 0.00 78 1013.2
20260506174535 63 197 3.0 7.0 0.00 0.00 0.00 77 1013.3
20260506173552 64 139 2.0 4.0 0.00 0.00 0.00 75 1013.3
20260506172529 64 137 3.0 8.0 0.00 0.00 0.00 74 1013.2
20260506171527 65 101 4.0 13.0 0.00 0.00 0.00 72 1013.3
20260506170524 66 97 2.0 9.0 0.00 0.00 0.00 71 1013.3
20260506165522 67 33 3.0 8.0 0.00 0.00 0.00 70 1013.1
20260506164519 67 65 2.0 4.0 0.00 0.00 0.00 69 1013.2
20260506163516 67 32 3.0 7.0 0.00 0.00 0.00 69 1013.2
20260506162614 68 233 3.0 7.0 0.00 0.00 0.00 67 1013.2
20260506161651 68 324 2.0 7.0 0.00 0.00 0.00 66 1013.0
20260506160609 69 23 2.0 6.0 0.00 0.00 0.00 64 1013.0
20260506155606 68 22 3.0 9.0 0.00 0.00 0.00 67 1013.0
20260506154604 67 100 3.0 8.0 0.00 0.00 0.00 67 1013.0
20260506153741 66 119 3.0 6.0 0.00 0.00 0.00 69 1013.0
20260506152559 68 20 3.0 7.0 0.00 0.00 0.00 66 1013.0
20260506151556 67 354 3.0 8.0 0.00 0.00 0.00 67 1012.9
20260506150634 69 5 4.0 11.0 0.00 0.00 0.00 65 1012.9
20260506145551 67 333 3.0 11.0 0.00 0.00 0.00 69 1013.0
20260506144548 67 296 3.0 7.0 0.00 0.00 0.00 70 1013.2
20260506143545 66 350 3.0 8.0 0.00 0.00 0.00 70 1013.3
20260506142543 67 356 3.0 9.0 0.00 0.00 0.00 69 1013.2
20260506141540 67 43 3.0 8.0 0.00 0.00 0.00 68 1013.3
20260506140538 68 331 4.0 9.0 0.00 0.00 0.00 67 1013.3
20260506135535 71 330 3.0 9.0 0.00 0.00 0.00 64 1013.2
20260506134532 71 329 4.0 11.0 0.00 0.00 0.00 64 1013.2
20260506133530 71 336 4.0 11.0 0.00 0.00 0.00 64 1013.3
20260506132527 71 7 4.0 8.0 0.00 0.00 0.00 64 1013.4
20260506131524 71 271 4.0 11.0 0.00 0.00 0.00 63 1013.4
20260506130522 70 322 4.0 11.0 0.00 0.00 0.00 63 1013.5
20260506125519 70 259 5.0 13.0 0.00 0.00 0.00 63 1013.6
20260506124517 70 352 5.0 11.0 0.00 0.00 0.00 61 1013.6
20260506123614 71 318 4.0 8.0 0.00 0.00 0.00 62 1013.6
20260506122632 70 354 4.0 11.0 0.00 0.00 0.00 63 1013.6
20260506121609 70 24 5.0 17.0 0.00 0.00 0.00 64 1013.5
20260506120607 70 186 3.0 11.0 0.00 0.00 0.00 64 1013.8
20260506115604 69 20 4.0 9.0 0.00 0.00 0.00 65 1013.8
20260506114601 70 320 3.0 7.0 0.00 0.00 0.00 66 1013.9
20260506113559 69 335 4.0 8.0 0.00 0.00 0.00 67 1013.8
20260506112556 69 340 6.0 13.0 0.00 0.00 0.00 66 1013.9
20260506111553 70 294 4.0 9.0 0.00 0.00 0.00 67 1014.0
20260506110631 69 275 4.0 11.0 0.00 0.00 0.00 66 1014.0
20260506105548 68 275 4.0 11.0 0.00 0.00 0.00 67 1014.2
20260506104605 69 289 4.0 7.0 0.00 0.00 0.00 65 1014.1
20260506103543 70 336 3.0 7.0 0.00 0.00 0.00 64 1014.2
20260506102600 69 294 3.0 8.0 0.00 0.00 0.00 65 1014.1
20260506101558 69 296 3.0 7.0 0.00 0.00 0.00 65 1014.2
20260506100535 70 195 3.0 8.0 0.00 0.00 0.00 63 1014.1
20260506095532 71 294 2.0 4.0 0.00 0.00 0.00 61 1014.1
20260506094550 71 248 3.0 7.0 0.00 0.00 0.00 61 1014.1
20260506093527 69 271 2.0 4.0 0.00 0.00 0.00 63 1014.0
20260506092524 69 235 2.0 6.0 0.00 0.00 0.00 63 1014.1
20260506091522 68 238 2.0 7.0 0.00 0.00 0.00 65 1013.8
20260506090519 68 189 3.0 6.0 0.00 0.00 0.00 66 1013.8
20260506085516 68 293 3.0 9.0 0.00 0.00 0.00 66 1013.7
20260506084614 67 239 1.0 4.0 0.00 0.00 0.00 69 1013.9
20260506083611 67 149 1.0 4.0 0.00 0.00 0.00 70 1013.8
20260506082609 67 248 1.0 4.0 0.00 0.00 0.00 68 1013.8
20260506081606 66 349 1.0 2.0 0.00 0.00 0.00 71 1013.7
20260506080604 65 180 0.0 2.0 0.00 0.00 0.00 72 1013.7
20260506072553 64 286 0.0 4.0 0.00 0.00 0.00 73 1013.8
20260506071550 64 0.0 0.0 0.00 0.00 0.00 74 1013.8
20260506070548 63 270 0.0 2.0 0.00 0.00 0.00 74 1013.8
20260506061535 59 0.0 0.0 0.00 0.00 0.00 88 1013.8
20260506060532 58 0.0 0.0 0.00 0.00 0.00 88 1013.8
20260506050517 56 0.0 2.0 0.00 0.00 0.00 84 1013.3
20260506044611 56 23 0.0 2.0 0.00 0.00 0.00 93 1013.1
20260506043609 57 23 0.0 2.0 0.00 0.00 0.00 92 1013.2